Hourly Weather Kozmino

Today, 24 October, Saturday

Time Temperature Precipitation Wind Pressure Humidity
00:00 -3°C° 0 mm 10 mps 753 mmHg 55%
01:00 -3°C° 0 mm 10 mps 753 mmHg 56%
02:00 -4°C° 0 mm 10 mps 753 mmHg 56%
03:00 -4°C° 0 mm 9 mps 753 mmHg 57%
04:00 -4°C° 0 mm 10 mps 753 mmHg 58%
05:00 -4°C° 0 mm 10 mps 752 mmHg 58%
06:00 -4°C° 0 mm 10 mps 752 mmHg 59%
07:00 -3°C° 0 mm 10 mps 752 mmHg 57%
08:00 -2°C° 0 mm 10 mps 752 mmHg 54%
09:00 0°C° 0 mm 10 mps 752 mmHg 52%
10:00 +1°C° 0 mm 10 mps 751 mmHg 49%
11:00 +2°C° 0 mm 10 mps 751 mmHg 46%
12:00 +3°C° 0 mm 10 mps 751 mmHg 43%
13:00 +5°C° 0 mm 10 mps 750 mmHg 42%
14:00 +5°C° 0 mm 10 mps 750 mmHg 40%
15:00 +6°C° 0 mm 11 mps 749 mmHg 38%
16:00 +4°C° 0 mm 11 mps 750 mmHg 40%
17:00 +3°C° 0 mm 10 mps 750 mmHg 41%
18:00 +2°C° 0 mm 10 mps 751 mmHg 42%
19:00 +1°C° 0 mm 10 mps 751 mmHg 44%
20:00 +1°C° 0 mm 10 mps 752 mmHg 46%
21:00 0°C° 0 mm 10 mps 752 mmHg 49%
22:00 0°C° 0 mm 10 mps 752 mmHg 52%
23:00 0°C° 0 mm 10 mps 752 mmHg 55%

Tomorrow, 25 October, Sunday

Time Temperature Precipitation Wind Pressure Humidity
00:00 0°C° 0 mm 9 mps 753 mmHg 58%
01:00 0°C° 0 mm 9 mps 753 mmHg 59%
02:00 0°C° 0 mm 9 mps 753 mmHg 59%
03:00 0°C° 0 mm 9 mps 753 mmHg 60%
04:00 -1°C° 0 mm 9 mps 753 mmHg 60%
05:00 -1°C° 0 mm 9 mps 754 mmHg 60%
06:00 -1°C° 0 mm 9 mps 754 mmHg 61%
07:00 +1°C° 0 mm 8 mps 754 mmHg 58%
08:00 +2°C° 0 mm 8 mps 754 mmHg 55%
09:00 +5°C° 0 mm 8 mps 755 mmHg 52%
10:00 +6°C° 0 mm 8 mps 755 mmHg 51%
11:00 +7°C° 0 mm 8 mps 755 mmHg 50%
12:00 +9°C° 0 mm 8 mps 755 mmHg 49%
13:00 +10°C° 0 mm 8 mps 756 mmHg 50%
14:00 +10°C° 0 mm 8 mps 756 mmHg 50%
15:00 +10°C° 0 mm 7 mps 756 mmHg 50%
16:00 +8°C° 0 mm 7 mps 757 mmHg 57%
17:00 +6°C° 0 mm 7 mps 757 mmHg 64%
18:00 +4°C° 0 mm 6 mps 758 mmHg 71%
19:00 +4°C° 0 mm 7 mps 759 mmHg 71%
20:00 +3°C° 0 mm 7 mps 759 mmHg 72%
21:00 +3°C° 0 mm 7 mps 760 mmHg 73%
22:00 +2°C° 0 mm 7 mps 760 mmHg 74%
23:00 +2°C° 0 mm 6 mps 760 mmHg 76%

Day after tomorrow, 26 October, Monday

Time Temperature Precipitation Wind Pressure Humidity
00:00 +2°C° 0 mm 6 mps 760 mmHg 78%
01:00 +1°C° 0 mm 5 mps 761 mmHg 79%
02:00 +1°C° 0 mm 5 mps 761 mmHg 81%
03:00 +1°C° 0 mm 5 mps 761 mmHg 82%
04:00 +1°C° 0 mm 5 mps 761 mmHg 83%
05:00 0°C° 0 mm 5 mps 761 mmHg 84%
06:00 0°C° 0 mm 5 mps 762 mmHg 85%
07:00 +3°C° 0 mm 4 mps 762 mmHg 79%
08:00 +4°C° 0 mm 4 mps 762 mmHg 73%
09:00 +6°C° 0 mm 4 mps 762 mmHg 68%
10:00 +7°C° 0 mm 4 mps 762 mmHg 62%
11:00 +10°C° 0 mm 4 mps 762 mmHg 56%
12:00 +12°C° 0 mm 4 mps 762 mmHg 50%
13:00 +12°C° 0 mm 4 mps 761 mmHg 49%
14:00 +13°C° 0 mm 4 mps 761 mmHg 48%
15:00 +13°C° 0 mm 4 mps 761 mmHg 48%
16:00 +11°C° 0 mm 4 mps 761 mmHg 55%
17:00 +8°C° 0 mm 4 mps 762 mmHg 63%
18:00 +6°C° 0 mm 4 mps 762 mmHg 71%
19:00 +6°C° 0 mm 4 mps 762 mmHg 73%
20:00 +5°C° 0 mm 3 mps 762 mmHg 76%
21:00 +5°C° 0 mm 3 mps 762 mmHg 78%
22:00 +4°C° 0 mm 3 mps 762 mmHg 79%
23:00 +5°C° 0 mm 2 mps 762 mmHg 79%

, 27 October, Tuesday

Time Temperature Precipitation Wind Pressure Humidity
00:00 +5°C° 0 mm 2 mps 762 mmHg 79%
01:00 +4°C° 0 mm 2 mps 762 mmHg 78%
02:00 +4°C° 0 mm 2 mps 762 mmHg 77%
03:00 +5°C° 0 mm 1 mps 762 mmHg 75%
04:00 +5°C° 0 mm 1 mps 762 mmHg 73%
05:00 +4°C° 0 mm 2 mps 762 mmHg 71%
06:00 +5°C° 0 mm 2 mps 762 mmHg 69%
07:00 +7°C° 0 mm 1 mps 762 mmHg 66%
08:00 +8°C° 0 mm 1 mps 762 mmHg 63%
09:00 +9°C° 0 mm 1 mps 763 mmHg 60%
10:00 +10°C° 0 mm 1 mps 762 mmHg 61%
11:00 +10°C° 0 mm 2 mps 762 mmHg 61%
12:00 +13°C° 0 mm 2 mps 762 mmHg 62%
13:00 +12°C° 0 mm 2 mps 762 mmHg 68%
14:00 +12°C° 0 mm 2 mps 761 mmHg 74%
15:00 +10°C° 0 mm 2 mps 761 mmHg 80%
16:00 +10°C° 0 mm 2 mps 761 mmHg 82%
17:00 +9°C° 0 mm 2 mps 761 mmHg 83%
18:00 +9°C° 0 mm 2 mps 761 mmHg 85%
19:00 +9°C° 0 mm 2 mps 761 mmHg 87%
20:00 +8°C° 0 mm 2 mps 762 mmHg 89%
21:00 +8°C° 0 mm 2 mps 762 mmHg 91%
22:00 +8°C° 0.2 mm 2 mps 762 mmHg 91%
23:00 +8°C° 0.2 mm 2 mps 762 mmHg 91%

27 October, Tuesday

Time Temperature Precipitation Wind Pressure Humidity
00:00 +5°C° 0 mm 2 mps 762 mmHg 79%
01:00 +4°C° 0 mm 2 mps 762 mmHg 78%
02:00 +4°C° 0 mm 2 mps 762 mmHg 77%
03:00 +5°C° 0 mm 1 mps 762 mmHg 75%
04:00 +5°C° 0 mm 1 mps 762 mmHg 73%
05:00 +4°C° 0 mm 2 mps 762 mmHg 71%
06:00 +5°C° 0 mm 2 mps 762 mmHg 69%
07:00 +7°C° 0 mm 1 mps 762 mmHg 66%
08:00 +8°C° 0 mm 1 mps 762 mmHg 63%
09:00 +9°C° 0 mm 1 mps 763 mmHg 60%
10:00 +10°C° 0 mm 1 mps 762 mmHg 61%
11:00 +10°C° 0 mm 2 mps 762 mmHg 61%
12:00 +13°C° 0 mm 2 mps 762 mmHg 62%
13:00 +12°C° 0 mm 2 mps 762 mmHg 68%
14:00 +12°C° 0 mm 2 mps 761 mmHg 74%
15:00 +10°C° 0 mm 2 mps 761 mmHg 80%
16:00 +10°C° 0 mm 2 mps 761 mmHg 82%
17:00 +9°C° 0 mm 2 mps 761 mmHg 83%
18:00 +9°C° 0 mm 2 mps 761 mmHg 85%
19:00 +9°C° 0 mm 2 mps 761 mmHg 87%
20:00 +8°C° 0 mm 2 mps 762 mmHg 89%
21:00 +8°C° 0 mm 2 mps 762 mmHg 91%
22:00 +8°C° 0.2 mm 2 mps 762 mmHg 91%
23:00 +8°C° 0.2 mm 2 mps 762 mmHg 91%

28 October, Wednesday

Time Temperature Precipitation Wind Pressure Humidity
00:00 +9°C° 0.2 mm 1 mps 762 mmHg 91%
01:00 +9°C° 0 mm 1 mps 762 mmHg 91%
02:00 +7°C° 0 mm 2 mps 762 mmHg 92%
03:00 +7°C° 0 mm 2 mps 762 mmHg 92%
04:00 +6°C° 0 mm 2 mps 762 mmHg 92%
05:00 +6°C° 0 mm 2 mps 762 mmHg 93%
06:00 +4°C° 0 mm 3 mps 762 mmHg 93%
07:00 +5°C° 0 mm 3 mps 762 mmHg 87%
08:00 +7°C° 0 mm 3 mps 762 mmHg 81%
09:00 +8°C° 0 mm 3 mps 762 mmHg 75%
10:00 +9°C° 0 mm 3 mps 762 mmHg 68%
11:00 +11°C° 0 mm 4 mps 762 mmHg 61%
12:00 +12°C° 0 mm 4 mps 762 mmHg 55%
13:00 +12°C° 0 mm 5 mps 761 mmHg 54%
14:00 +10°C° 0 mm 6 mps 761 mmHg 53%
15:00 +10°C° 0 mm 6 mps 761 mmHg 53%
16:00 +8°C° 0 mm 6 mps 761 mmHg 55%
17:00 +7°C° 0 mm 6 mps 761 mmHg 57%
18:00 +4°C° 0 mm 6 mps 761 mmHg 59%
19:00 +4°C° 0 mm 6 mps 761 mmHg 61%
20:00 +3°C° 0 mm 6 mps 762 mmHg 63%
21:00 +2°C° 0 mm 6 mps 762 mmHg 64%
22:00 +2°C° 0 mm 6 mps 762 mmHg 66%
23:00 +2°C° 0 mm 6 mps 762 mmHg 67%

29 October, Thursday

Time Temperature Precipitation Wind Pressure Humidity
00:00 +1°C° 0 mm 6 mps 762 mmHg 68%
01:00 0°C° 0 mm 7 mps 762 mmHg 69%
02:00 0°C° 0 mm 7 mps 762 mmHg 69%
03:00 -1°C° 0 mm 7 mps 763 mmHg 70%
04:00 -1°C° 0 mm 7 mps 763 mmHg 72%
05:00 -1°C° 0 mm 7 mps 763 mmHg 75%
06:00 -2°C° 0 mm 7 mps 763 mmHg 78%
07:00 -1°C° 0 mm 7 mps 763 mmHg 73%
08:00 0°C° 0 mm 7 mps 764 mmHg 69%
09:00 +3°C° 0 mm 7 mps 764 mmHg 65%
10:00 +2°C° 0 mm 8 mps 764 mmHg 62%
11:00 +4°C° 0 mm 8 mps 764 mmHg 60%
12:00 +5°C° 0 mm 9 mps 763 mmHg 57%
13:00 +5°C° 0 mm 9 mps 764 mmHg 57%
14:00 +5°C° 0 mm 9 mps 764 mmHg 57%
15:00 +6°C° 0 mm 9 mps 764 mmHg 57%
16:00 +3°C° 0 mm 9 mps 764 mmHg 64%
17:00 +2°C° 0 mm 8 mps 765 mmHg 71%
18:00 +1°C° 0 mm 8 mps 765 mmHg 77%
19:00 +2°C° 0 mm 7 mps 765 mmHg 78%
20:00 +2°C° 0 mm 7 mps 766 mmHg 79%
21:00 0°C° 0 mm 7 mps 766 mmHg 80%
22:00 0°C° 0 mm 7 mps 766 mmHg 80%
23:00 0°C° 0 mm 7 mps 767 mmHg 80%
Show more